Mount Shasta, CA

3:17 AM PDT on October 01, 2016 (GMT -0700)
Mount Shasta

Weather History for KMHS - October, 2013

Change the Weather History Date:

Sunday, October 27, 2013

  Actual Average Record
Temperature  
Mean Temperature 52 °F 47 °F  
Max Temperature 70 °F 60 °F 80 °F (1952)
Min Temperature 33 °F 34 °F 20 °F (1919)
Degree Days  
Heating Degree Days 13 18  
Month to date heating degree days 376 352  
Since 1 July heating degree days 553 589  
Cooling Degree Days 0 0  
Month to date cooling degree days 0 0  
Year to date cooling degree days 474 287  
Growing Degree Days 1 (Base 50)    
Moisture  
Dew Point 29 °F    
Average Humidity 56    
Maximum Humidity 73    
Minimum Humidity 21    
Precipitation  
Precipitation 0.04 in 0.12 in 2.16 in (1981)
Month to date precipitation 0.10 1.78  
Year to date precipitation 8.99 29.78  
Sea Level Pressure  
Sea Level Pressure 29.85 in    
Wind  
Wind Speed 5 mph (North)    
Max Wind Speed 20 mph    
Max Gust Speed 43 mph    
Visibility 10 miles    
Events Rain    
T = Trace of Precipitation, MM = Missing Value Source: NWS Daily Summary

Daily Weather History Graph

Daily Weather History Graph

Search for Another Location

Airport or City:

Trip Planner

Search our weather history database for the weather conditions in past years. The results will help you decide how hot, cold, wet, or windy it might be!

Date:

Astronomy

Oct. 27, 2013 Rise Set
Actual Time 7:35 AM PDT 6:10 PM PDT
Civil Twilight 7:06 AM PDT 6:38 PM PDT
Nautical Twilight 6:34 AM PDT 7:11 PM PDT
Astronomical Twilight 6:02 AM PDT 7:43 PM PDT
Moon 12:33 AM PDT (10/27) 2:26 PM PDT (10/27)
Length of Visible Light 11h 32m
Length of Day
10h 35m
Last Quarter, 42% of the Moon is Illuminated
Oct 27
Last Quarter
Nov 3
New
Nov 9
First Quarter
Nov 17
Full
Nov 25
Last Quarter

Hourly Weather History & Observations

Time (PDT) Temp. Windchill Dew Point Humidity Pressure Visibility Wind Dir Wind Speed Gust Speed Precip Events Conditions
12:56 AM 39.0 °F 36.8 °F 24.1 °F 55% 30.11 in 8.0 mi NE 3.5 mph - N/A   Clear
1:56 AM 39.0 °F 36.8 °F 24.1 °F 55% 30.10 in 10.0 mi NE 3.5 mph - N/A   Clear
2:56 AM 36.0 °F - 24.1 °F 62% 30.08 in 10.0 mi Calm Calm - N/A   Clear
3:56 AM 35.1 °F - 23.0 °F 61% 30.04 in 10.0 mi Calm Calm - N/A   Clear
4:56 AM 36.0 °F - 23.0 °F 59% 30.03 in 10.0 mi Calm Calm - N/A   Clear
5:56 AM 34.0 °F 29.8 °F 21.9 °F 61% 30.04 in 10.0 mi NE 4.6 mph - N/A   Clear
6:56 AM 35.1 °F - 21.9 °F 59% 30.04 in 10.0 mi Calm Calm - N/A   Scattered Clouds
7:56 AM 34.0 °F - 23.0 °F 64% 30.05 in 10.0 mi Calm Calm - N/A   Partly Cloudy
8:56 AM 41.0 °F - 25.0 °F 53% 30.04 in 10.0 mi Calm Calm - N/A   Clear
9:56 AM 55.0 °F - 32.0 °F 42% 30.00 in 10.0 mi Variable 3.5 mph - N/A   Clear
10:56 AM 61.0 °F - 34.0 °F 36% 29.96 in 10.0 mi Variable 5.8 mph - N/A   Clear
11:56 AM 64.9 °F - 32.0 °F 29% 29.91 in 10.0 mi Variable 3.5 mph - N/A   Clear
12:56 PM 66.9 °F - 28.0 °F 23% 29.82 in 10.0 mi Calm Calm - N/A   Clear
1:56 PM 66.9 °F - 30.0 °F 25% 29.74 in 10.0 mi Calm Calm - N/A   Clear
2:56 PM 68.0 °F - 27.0 °F 21% 29.70 in 10.0 mi NNW 8.1 mph 21.9 mph N/A   Clear
3:56 PM 54.0 °F - 33.1 °F 45% 29.79 in 10.0 mi NNW 13.8 mph 31.1 mph N/A   Scattered Clouds
4:56 PM 51.1 °F - 28.9 °F 43% 29.78 in 10.0 mi NNW 9.2 mph 23.0 mph N/A   Mostly Cloudy
5:56 PM 48.9 °F - 27.0 °F 43% 29.76 in 10.0 mi NW 11.5 mph 24.2 mph N/A   Mostly Cloudy
6:56 PM 46.0 °F 41.9 °F 28.9 °F 51% 29.78 in 10.0 mi NNW 8.1 mph 21.9 mph 0.00 in   Overcast
7:56 PM 44.1 °F 40.1 °F 30.9 °F 60% 29.79 in 10.0 mi North 6.9 mph - N/A   Overcast
8:44 PM 44.6 °F 42.2 °F 30.2 °F 57% 29.70 in 10.0 mi Variable 4.6 mph - N/A   Overcast
8:56 PM 43.0 °F 37.7 °F 32.0 °F 65% 29.76 in 10.0 mi North 9.2 mph - 0.00 in Rain Light Rain
9:56 PM 42.1 °F 37.7 °F 32.0 °F 67% 29.72 in 10.0 mi Variable 6.9 mph - 0.00 in   Overcast
10:09 PM 42.8 °F 39.3 °F 32.0 °F 66% 29.68 in 10.0 mi Variable 5.8 mph - N/A   Overcast
10:28 PM 41.0 °F 35.8 °F 33.8 °F 76% 29.69 in 8.0 mi NNW 8.1 mph - 0.00 in Rain Light Rain
10:37 PM 41.0 °F 35.8 °F 33.8 °F 76% 29.69 in 10.0 mi NNW 8.1 mph 16.1 mph 0.00 in Rain Light Rain
10:56 PM 41.0 °F 37.1 °F 34.0 °F 76% 29.70 in 10.0 mi Variable 5.8 mph - 0.00 in   Overcast
11:32 PM 41.0 °F 35.2 °F 33.8 °F 76% 29.66 in 10.0 mi NNW 9.2 mph 20.7 mph N/A   Mostly Cloudy
11:47 PM 39.2 °F 33.0 °F 33.8 °F 81% 29.66 in 10.0 mi North 9.2 mph 20.7 mph 0.00 in Rain Light Rain
11:56 PM 39.9 °F 32.5 °F 34.0 °F 79% 29.67 in 10.0 mi NNW 12.7 mph 26.5 mph 0.00 in Rain Light Rain